Overview Statistics Trail Chart Weather Telemetry Raw packets
 

This is the latest recevied weather packets stored in our database for station/object KB8TTR. If no packets are shown the sender has not sent any weather packets the latest 10 day(s).

<< 102 103 104 105 106 107 108 >>
Time Temp. Humidity Pressure Rain* Wind** Luminosity Snow
1787846701 27.22° C 59% 1016.3 hPa 0 mm - 739 W/m² -
1787846395 26.67° C 61% 1016.1 hPa 0 mm - 723 W/m² -
1787846091 26.67° C 57% 1016.2 hPa 0 mm - 712 W/m² -
1787845787 26.67° C 62% 1016.2 hPa 0 mm - 700 W/m² -
1787845482 26.11° C 64% 1016.2 hPa 0 mm - 688 W/m² -
1787845178 26.11° C 63% 1016.1 hPa 0 mm - 678 W/m² -
1787844873 26.11° C 63% 1016.2 hPa 0 mm - 664 W/m² -
1787844572 26.11° C 63% 1016 hPa 0 mm - 648 W/m² -
1787844268 26.11° C 61% 1016.1 hPa 0 mm - 637 W/m² -
1787843966 26.11° C 62% 1016.1 hPa 0 mm - 624 W/m² -
1787843662 25.56° C 63% 1015.9 hPa 0 mm - 608 W/m² -
1787843358 25.56° C 66% 1016 hPa 0 mm - 590 W/m² -
1787843054 26.11° C 66% 1015.8 hPa 0 mm - 582 W/m² -
1787842753 25.56° C 68% 1015.8 hPa 0 mm - 569 W/m² -
1787842449 25.56° C 68% 1016 hPa 0 mm - 553 W/m² -
1787842146 25.56° C 66% 1015.8 hPa 0 mm - 530 W/m² -
1787841837 25.56° C 69% 1015.8 hPa 0 mm - 513 W/m² -
1787841534 25° C 71% 1015.7 hPa 0 mm - 498 W/m² -
1787841233 25° C 71% 1015.6 hPa 0 mm - 482 W/m² -
1787840928 25.56° C 70% 1015.6 hPa 0 mm - 473 W/m² -
1787840623 25° C 72% 1015.7 hPa 0 mm - 438 W/m² -
1787840318 25° C 73% 1015.6 hPa 0 mm - 432 W/m² -
1787840019 25° C 73% 1015.7 hPa 0 mm - 414 W/m² -
1787839719 25° C 72% 1015.4 hPa 0 mm - 402 W/m² -
1787839414 25° C 74% 1015.4 hPa 0 mm - 374 W/m² -

* Rain latest hour (hover to see other rain measurements)
** Current wind speed in m/s (hover to see current wind gust speed)